Weather History for Buffalo, WY

Change the Weather History Date:

Sunday, January 13, 2013

  Actual Average Record
Temperature  
Mean Temperature 6 °F 28 °F  
Max Temperature 13 °F 39 °F 56 °F (1983)
Min Temperature -1 °F 17 °F -13 °F (2005)
Degree Days  
Heating Degree Days 59 37  
Month to date heating degree days 494 487  
Since 1 July heating degree days 3219 3534  
Cooling Degree Days 0 0  
Month to date cooling degree days 0 0  
Year to date cooling degree days 0 0  
Moisture  
Dew Point -1 °F    
Average Humidity 75    
Maximum Humidity 88    
Minimum Humidity 61    
Precipitation  
Precipitation T in 0.01 in 0.02 in (2005)
Month to date precipitation T 0.14  
Year to date precipitation T 0.14  
Sea Level Pressure  
Sea Level Pressure 30.16 in    
Wind  
Wind Speed 5 mph (West)    
Max Wind Speed 12 mph    
Max Gust Speed 15 mph    
Visibility 8 miles    
Events Snow    
T = Trace of Precipitation, MM = Missing Value Source: NWS Daily Summary

Daily Weather History Graph

Daily Weather History Graph

Search for Another Location

Airport:

Trip Planner

Search our weather history database for the weather conditions in past years. The results will help you decide how hot, cold, wet, or windy it might be!

Date:

Astronomy

Jan. 13, 2013 Rise Set
Actual Time 7:40 AM MST 4:51 PM MST
Civil Twilight 7:07 AM MST 5:23 PM MST
Nautical Twilight 6:31 AM MST 5:59 PM MST
Astronomical Twilight 5:57 AM MST 6:34 PM MST
Moon 8:34 AM MST (1/13) 7:40 PM MST (1/13)
Length of Visible Light 10h 15m
Length of Day
9h 11m
Waxing Crescent, 5% of the Moon is Illuminated
Jan 13
Waxing Crescent
Jan 18
First Quarter
Jan 26
Full
Feb 3
Last Quarter
Feb 10
New

Hourly Weather History & Observations

Time (MST) Temp. Windchill Dew Point Humidity Pressure Visibility Wind Dir Wind Speed Gust Speed Precip Events Conditions
12:15 AM 5.0 °F -4.1 °F 1.4 °F 85% 29.99 in 10.0 mi WNW 4.6 mph - N/A   Overcast
12:53 AM 7.0 °F -4.5 °F -0.0 °F 73% 30.24 in 10.0 mi NW 6.9 mph - N/A   Overcast
1:17 AM 6.8 °F -4.8 °F 1.4 °F 79% 30.00 in 10.0 mi NNW 6.9 mph - N/A   Overcast
1:49 AM 6.8 °F -2.0 °F 3.2 °F 85% 30.00 in 2.5 mi NNW 4.6 mph - 0.00 in Snow Light Snow
1:53 AM 7.0 °F -1.7 °F 3.0 °F 84% 30.24 in 2.5 mi NNW 4.6 mph - 0.00 in Snow Light Snow
2:53 AM 7.0 °F - 3.0 °F 84% 30.24 in 2.5 mi Calm Calm - 0.00 in Snow Light Snow
3:41 AM 6.8 °F - 3.2 °F 85% 30.00 in 2.5 mi Calm Calm - 0.00 in Snow Light Snow
3:53 AM 7.0 °F 0.1 °F 1.9 °F 80% 30.23 in 2.5 mi NNW 3.5 mph - 0.00 in Snow Light Snow
4:11 AM 6.8 °F -2.0 °F 1.4 °F 79% 29.99 in 2.5 mi WNW 4.6 mph - 0.00 in Snow Light Snow
4:18 AM 5.0 °F -4.1 °F 1.4 °F 85% 29.99 in 4.0 mi WNW 4.6 mph - 0.00 in Snow Light Snow
4:27 AM 6.8 °F - 1.4 °F 79% 29.98 in 4.0 mi Calm Calm - 0.00 in Snow Light Snow
4:48 AM 6.8 °F - 1.4 °F 79% 29.99 in 2.5 mi Calm Calm - 0.00 in Snow Light Snow
5:01 AM 5.0 °F -2.1 °F 1.4 °F 85% 29.98 in 4.0 mi WNW 3.5 mph - 0.00 in Snow Light Snow
5:25 AM 3.2 °F -4.2 °F -0.4 °F 85% 29.99 in 4.0 mi WSW 3.5 mph - 0.00 in Snow Light Snow
5:53 AM 3.0 °F -4.4 °F -2.0 °F 80% 30.26 in 8.0 mi SSW 3.5 mph - 0.00 in   Overcast
6:11 AM 1.4 °F -6.2 °F -2.2 °F 85% 30.00 in 5.0 mi SW 3.5 mph - N/A   Overcast
6:53 AM 1.0 °F -8.7 °F -5.1 °F 75% 30.27 in 10.0 mi SW 4.6 mph - N/A   Overcast
7:53 AM 1.0 °F -11.7 °F -5.1 °F 75% 30.29 in 10.0 mi WSW 6.9 mph - N/A   Overcast
8:03 AM 1.4 °F -8.3 °F -5.8 °F 72% 30.03 in 10.0 mi WSW 4.6 mph - N/A   Overcast
8:53 AM 5.0 °F - -2.9 °F 70% 30.29 in 10.0 mi Calm Calm - N/A   Overcast
9:44 AM 8.6 °F 0.1 °F 1.4 °F 73% 30.04 in 10.0 mi NW 4.6 mph - N/A   Mostly Cloudy
9:53 AM 8.1 °F -2.0 °F 1.0 °F 73% 30.29 in 10.0 mi NW 5.8 mph - N/A   Mostly Cloudy
10:04 AM 8.6 °F 0.1 °F 1.4 °F 73% 30.04 in 10.0 mi North 4.6 mph - N/A   Mostly Cloudy
10:19 AM 8.6 °F -2.6 °F 1.4 °F 73% 30.04 in 10.0 mi NW 6.9 mph - N/A   Scattered Clouds
10:53 AM 10.0 °F 0.4 °F -0.0 °F 64% 30.27 in 10.0 mi NW 5.8 mph - N/A   Clear
11:53 AM 10.0 °F 0.4 °F 1.0 °F 67% 30.25 in 10.0 mi South 5.8 mph - N/A   Partly Cloudy
12:53 PM 12.0 °F 4.1 °F 1.0 °F 61% 30.22 in 10.0 mi Variable 4.6 mph - N/A   Mostly Cloudy
1:53 PM 10.9 °F - 1.9 °F 67% 30.24 in 10.0 mi Calm Calm - N/A   Scattered Clouds
2:53 PM 12.0 °F 0.5 °F 1.9 °F 64% 30.25 in 10.0 mi North 8.1 mph - N/A   Mostly Cloudy
3:53 PM 10.0 °F 3.6 °F 1.0 °F 67% 30.26 in 10.0 mi NNW 3.5 mph - N/A   Overcast
4:53 PM 9.0 °F 0.6 °F -0.0 °F 67% 30.27 in 10.0 mi South 4.6 mph - N/A   Overcast
5:53 PM 7.0 °F 0.1 °F -2.0 °F 67% 30.29 in 10.0 mi SSW 3.5 mph - N/A   Overcast
6:53 PM 6.1 °F -0.9 °F -2.9 °F 67% 30.29 in 10.0 mi South 3.5 mph - N/A   Partly Cloudy
7:53 PM 1.0 °F -8.7 °F -6.0 °F 72% 30.31 in 10.0 mi SW 4.6 mph - N/A   Clear
8:53 PM 1.0 °F -12.9 °F -7.1 °F 69% 30.29 in 10.0 mi WSW 8.1 mph - N/A   Clear
9:53 PM 3.0 °F -9.3 °F -7.1 °F 63% 30.27 in 10.0 mi WSW 6.9 mph - N/A   Scattered Clouds
11:53 PM 6.1 °F -6.8 °F -6.0 °F 58% 30.25 in 10.0 mi SW 8.1 mph - N/A   Overcast